Overview Statistics Trail Chart Weather Telemetry Raw packets
 

This is the latest recevied weather packets stored in our database for station/object N5ATR. If no packets are shown the sender has not sent any weather packets the latest 10 day(s).

<< 22 23 24 25 26 27 28 >>
Time Temp. Humidity Pressure Rain* Wind** Luminosity Snow
1788542641 21.67° C 57% 1023.9 hPa 0 mm - 208 W/m² -
1788542337 21.67° C 55% 1023.8 hPa 0 mm - 321 W/m² -
1788542032 22.22° C 54% 1024.1 hPa 0 mm - 339 W/m² -
1788541728 22.22° C 55% 1023.8 hPa 0 mm - 536 W/m² -
1788541423 21.67° C 57% 1024 hPa 0 mm - 519 W/m² -
1788541119 22.22° C 56% 1024 hPa 0 mm - 377 W/m² -
1788540817 21.67° C 56% 1024 hPa 0 mm - 430 W/m² -
1788540513 20.56° C 60% 1024 hPa 0 mm - 304 W/m² -
1788540212 21.67° C 58% 1023.9 hPa 0 mm - 313 W/m² -
1788539909 21.11° C 60% 1023.8 hPa 0 mm - 277 W/m² -
1788539609 20.56° C 61% 1023.6 hPa 0 mm - 225 W/m² -
1788539308 20.56° C 61% 1024 hPa 0 mm - 217 W/m² -
1788539004 20.56° C 62% 1023.6 hPa 0 mm - 214 W/m² -
1788538699 20.56° C 61% 1023.6 hPa 0 mm - 223 W/m² -
1788538399 20.56° C 64% 1023.6 hPa 0 mm - 270 W/m² -
1788538094 20° C 64% 1023.6 hPa 0 mm - 256 W/m² -
1788537789 20° C 65% 1023.6 hPa 0 mm - 243 W/m² -
1788537489 19.44° C 67% 1023.6 hPa 0 mm - 282 W/m² -
1788537184 19.44° C 67% 1023.5 hPa 0 mm - 211 W/m² -
1788536882 19.44° C 66% 1023.5 hPa 0 mm - 175 W/m² -
1788536577 19.44° C 66% 1023.6 hPa 0 mm - 160 W/m² -
1788536273 20° C 64% 1023.5 hPa 0 mm - 156 W/m² -
1788535969 19.44° C 65% 1023.3 hPa 0 mm - 211 W/m² -
1788535665 19.44° C 65% 1023.5 hPa 0 mm - 271 W/m² -
1788535360 18.89° C 67% 1022.9 hPa 0 mm - 169 W/m² -

* Rain latest hour (hover to see other rain measurements)
** Current wind speed in m/s (hover to see current wind gust speed)